Weather History for Marathon, FL

Change the Weather History Date:

Monday, November 21, 2011

  Actual Average Record
Temperature  
Mean Temperature 81 °F 75 °F  
Max Temperature 85 °F 80 °F 85 °F (2011)
Min Temperature 77 °F 70 °F 55 °F (2006)
Degree Days  
Heating Degree Days 0 0  
Month to date heating degree days 0 0  
Since 1 July heating degree days 0 0  
Cooling Degree Days 16 10  
Month to date cooling degree days 256 238  
Year to date cooling degree days 5035 4677  
Growing Degree Days 31 (Base 50)    
Moisture  
Dew Point 72 °F    
Average Humidity 78    
Maximum Humidity 85    
Minimum Humidity 70    
Precipitation  
Precipitation T in 0.06 in 0.61 in (2014)
Month to date precipitation 0.30 2.15  
Year to date precipitation 35.81 43.48  
Snow  
Snow 0.00 in - - ()
Month to date snowfall 0.0  
Since 1 July snowfall 0.0  
Since 1 September snowfall 0.0  
Snow Depth 0.00 in    
Sea Level Pressure  
Sea Level Pressure 30.13 in    
Wind  
Wind Speed 10 mph (East)    
Max Wind Speed 15 mph    
Max Gust Speed 22 mph    
Visibility 10 miles    
Events      
T = Trace of Precipitation, MM = Missing Value Source: NWS Daily Summary

Daily Weather History Graph

Daily Weather History Graph

Search for Another Location

Airport:

Trip Planner

Search our weather history database for the weather conditions in past years. The results will help you decide how hot, cold, wet, or windy it might be!

Date:

Astronomy

Nov. 21, 2011 Rise Set
Actual Time 6:44 AM EST 5:35 PM EST
Civil Twilight 6:20 AM EST 5:59 PM EST
Nautical Twilight 5:52 AM EST 6:27 PM EST
Astronomical Twilight 5:24 AM EST 6:54 PM EST
Moon 2:42 AM EST (11/21) 2:39 PM EST (11/21)
Length of Visible Light 11h 39m
Length of Day
10h 51m
Waning Crescent, 18% of the Moon is Illuminated
Nov 21
Waning Crescent
Nov 25
New
Dec 2
First Quarter
Dec 10
Full
Dec 17
Last Quarter

Hourly Weather History & Observations

Time (EST) Temp. Heat Index Dew Point Humidity Pressure Visibility Wind Dir Wind Speed Gust Speed Precip Events Conditions
12:53 AM 78.1 °F - 73.0 °F 84% 30.14 in 10.0 mi ENE 10.4 mph - N/A   Clear
1:53 AM 78.1 °F - 72.0 °F 81% 30.12 in 10.0 mi ENE 8.1 mph - N/A   Partly Cloudy
2:53 AM 78.1 °F - 69.1 °F 74% 30.12 in 10.0 mi East 8.1 mph - N/A   Clear
3:53 AM 78.1 °F - 70.0 °F 76% 30.12 in 10.0 mi East 8.1 mph - N/A   Clear
4:53 AM 78.1 °F - 69.1 °F 74% 30.12 in 10.0 mi East 5.8 mph - N/A   Partly Cloudy
5:53 AM 78.1 °F - 71.1 °F 79% 30.12 in 10.0 mi East 8.1 mph - N/A   Partly Cloudy
6:53 AM 78.1 °F - 72.0 °F 81% 30.14 in 10.0 mi East 5.8 mph - N/A   Partly Cloudy
7:53 AM 79.0 °F - 72.0 °F 79% 30.16 in 10.0 mi East 8.1 mph - N/A   Clear
8:53 AM 81.0 °F 85.8 °F 73.0 °F 77% 30.17 in 10.0 mi East 8.1 mph - N/A   Clear
9:53 AM 82.9 °F 89.4 °F 73.9 °F 74% 30.18 in 10.0 mi East 9.2 mph - N/A   Clear
10:53 AM 84.0 °F 90.2 °F 73.0 °F 69% 30.17 in 10.0 mi East 8.1 mph - N/A   Clear
11:53 AM 84.0 °F 91.2 °F 73.9 °F 72% 30.15 in 10.0 mi East 11.5 mph - N/A   Partly Cloudy
12:53 PM 84.9 °F 93.3 °F 75.0 °F 72% 30.12 in 10.0 mi East 8.1 mph - N/A   Partly Cloudy
1:53 PM 84.0 °F 91.2 °F 73.9 °F 72% 30.09 in 10.0 mi ESE 11.5 mph 16.1 mph 0.00 in   Partly Cloudy
2:53 PM 82.0 °F 87.4 °F 73.0 °F 74% 30.08 in 10.0 mi East 9.2 mph 18.4 mph N/A   Partly Cloudy
3:53 PM 82.0 °F 87.4 °F 73.0 °F 74% 30.08 in 10.0 mi East 12.7 mph 18.4 mph N/A   Clear
4:53 PM 80.1 °F 84.2 °F 73.0 °F 79% 30.09 in 10.0 mi East 10.4 mph 17.3 mph N/A   Clear
5:53 PM 80.1 °F 84.2 °F 73.0 °F 79% 30.10 in 10.0 mi East 11.5 mph 18.4 mph N/A   Scattered Clouds
6:53 PM 79.0 °F - 72.0 °F 79% 30.11 in 10.0 mi East 13.8 mph - N/A   Partly Cloudy
7:53 PM 79.0 °F - 71.1 °F 77% 30.12 in 10.0 mi East 11.5 mph 19.6 mph N/A   Clear
8:53 PM 79.0 °F - 69.1 °F 72% 30.13 in 10.0 mi East 10.4 mph 20.7 mph N/A   Clear
9:53 PM 79.0 °F - 69.1 °F 72% 30.13 in 10.0 mi East 12.7 mph 18.4 mph N/A   Scattered Clouds
10:53 PM 78.1 °F - 68.0 °F 71% 30.14 in 10.0 mi East 10.4 mph 19.6 mph N/A   Clear
11:53 PM 78.1 °F - 69.1 °F 74% 30.13 in 10.0 mi East 9.2 mph - N/A   Clear